This is the latest recevied weather packets stored in our database for station/object EA1HTW-13. If no packets are shown the sender has not sent any weather packets the latest 10 day(s).
| Time | Temp. | Humidity | Pressure | Rain* | Wind** | Luminosity | Snow |
|---|---|---|---|---|---|---|---|
| 1778067314 | 19.44° C | 46% | 1008.3 hPa | 0 mm | - | - | - |
| 1778066774 | 18.89° C | 47% | 1008.4 hPa | 0 mm | - | - | - |
| 1778066234 | 18.33° C | 48% | 1008.4 hPa | 0 mm | - | - | - |
| 1778065694 | 18.33° C | 48% | 1008.5 hPa | 0 mm | - | - | - |
| 1778065155 | 18.33° C | 47% | 1008.4 hPa | 0 mm | - | - | - |
| 1778064615 | 18.33° C | 49% | 1008.6 hPa | 0 mm | - | - | - |
| 1778064074 | 18.33° C | 49% | 1008.8 hPa | 0 mm | - | - | - |
| 1778063534 | 18.33° C | 51% | 1008.7 hPa | 0 mm | - | - | - |
| 1778062994 | 17.78° C | 51% | 1008.7 hPa | 0 mm | - | - | - |
| 1778062454 | 17.78° C | 50% | 1008.6 hPa | 0 mm | - | - | - |
| 1778061914 | 17.78° C | 50% | 1008.7 hPa | 0 mm | - | - | - |
| 1778061374 | 17.22° C | 53% | 1008.6 hPa | 0 mm | - | - | - |
| 1778060834 | 16.67° C | 53% | 1008.9 hPa | 0 mm | - | - | - |
| 1778060294 | 17.22° C | 53% | 1008.8 hPa | 0 mm | - | - | - |
| 1778059754 | 16.67° C | 54% | 1008.7 hPa | 0 mm | - | - | - |
| 1778059214 | 16.67° C | 55% | 1009 hPa | 0 mm | - | - | - |
| 1778058674 | 16.67° C | 55% | 1008.8 hPa | 0 mm | - | - | - |
| 1778058134 | 16.67° C | 60% | 1009 hPa | 0 mm | - | - | - |
| 1778057594 | 16.67° C | 61% | 1008.9 hPa | 0 mm | - | - | - |
| 1778057054 | 16.11° C | 61% | 1009 hPa | 0 mm | - | - | - |
| 1778056515 | 16.11° C | 62% | 1008.9 hPa | 0 mm | - | - | - |
| 1778055975 | 15.56° C | 63% | 1008.8 hPa | 0 mm | - | - | - |
| 1778055436 | 15.56° C | 66% | 1008.8 hPa | 0 mm | - | - | - |
| 1778054895 | 15° C | 67% | 1008.7 hPa | 0 mm | - | - | - |
| 1778054354 | 14.44° C | 69% | 1008.9 hPa | 0 mm | - | - | - |
* Rain latest hour (hover to see other rain measurements)
** Current wind speed in m/s (hover to see current wind gust speed)